Location: Fornova de Taro
(44.7000°N, 10.1000°E)
Time: 23:44:57
(UTC+00:00)

SL-16 R/B - Pass Details

Date: 26 May 2022
Orbit: 839 x 850 km, 71.0° (Epoch: 02 July)

Event Time Altitude Azimuth Distance (km) Brightness Sun altitude
Exits shadow 00:16:33 23° 131° (SE) 1,720 3.6 -22.8°
Maximum altitude 00:18:16 27° 103° (ESE) 1,573 3.6 -22.7°
Drops below altitude 10° 00:22:55 10° 47° (NE) 2,471 5.4 -22.5°
Sets 00:25:42 0° 36° (NE) 3,413 6.6 -22.3°
